Flag for United Kingdom Weather past 2 weeks in King's Lynn, England, United Kingdom

Now
79 °F

Sunny.


Feels Like: 80 °F
Forecast: 60 / 74 °F
Wind: 16 mph from Northeast

Location: Marham

Current Time: Jul 23, 2014 at 5:53:26 PM

Latest Report: Jul 23, 2014 at 4:50 PM


Visibility: 10 mi

Pressure: 30.09 "Hg

Humidity: 51%

Dew point: 59 °F

Location of King's LynnLocation

Historic Weather in King's Lynn — Graph

°F

King's Lynn temperature yesterday

Maximum temperature yesterday: 68 °F (at 2:50 PM)
Minimum temperature yesterday: 59 °F (at 11:50 PM)
Average temperature yesterday: 64 °F

Past Weeks' High & Low Weather Summary

 TemperatureHumidityPressure
High86 °F (Jul 18, 1:50 PM)100% (Jul 8, 11:50 PM)30.24 "Hg (Jul 8, 11:50 PM)
Low50 °F (Jul 14, 4:50 AM)43% (Jul 18, 3:50 PM)29.68 "Hg (Jul 13, 1:50 PM)
Average65 °F82%29.99 "Hg
* Reported Jul 8 4:50 PM — Jul 23 4:50 PM, King's Lynn, Weather by CustomWeather, © 2014

Note: Actual official high and low records may vary slightly from our data, if they occured in-between our weather recording intervals... More about our weather records

Advertising

King's Lynn weather history for previous 24 hours

 ConditionsComfort  
Time TempWeatherWind HumidityBarometerVisibility
4:50 PM
Jul 23
79 °FSunny.16 mph51%30.09 "Hg10 mi
3:50 PM81 °FSunny.16 mph51%30.09 "Hg10 mi
2:50 PM81 °FPassing clouds.15 mph48%30.12 "HgN/A
1:50 PM79 °FPassing clouds.15 mph58%30.12 "HgN/A
12:50 PM77 °FPassing clouds.13 mph65%30.12 "HgN/A
11:50 AM75 °FPassing clouds.14 mph69%30.15 "HgN/A
10:50 AM72 °FPassing clouds.15 mph73%30.15 "HgN/A
9:50 AM68 °FPassing clouds.15 mph78%30.18 "HgN/A
8:50 AM66 °FPassing clouds.16 mph83%30.18 "HgN/A
6:50 AM61 °FHaze.13 mph94%30.18 "Hg5 mi
5:50 AM59 °FFog.12 mph94%30.18 "Hg4 mi
4:50 AM59 °FFog.10 mph94%30.21 "Hg4 mi
3:50 AM59 °FLow clouds.9 mph100%30.21 "HgN/A
2:50 AM59 °FFog.9 mph100%30.21 "Hg4 mi
1:50 AM59 °FFog.12 mph100%30.24 "Hg4 mi
12:50 AM59 °FFog.9 mph100%30.24 "Hg4 mi
11:50 PM
Jul 22
59 °FFog.8 mph100%30.24 "Hg6 mi
5:50 PM66 °FScattered clouds.13 mph83%30.21 "HgN/A
Weather by CustomWeather, © 2014

See weather overviewHow to use our weather pages